Tracking 20232 objects as of 20-Jan-2020
HD Live streaming from Space Station
objects crossing your sky now

COSMOS 1275 DEB

Track COSMOS 1275 DEB now!
10-day predictions


NORAD ID: 42121
Int'l Code: 1981-053QH
Perigee: 855.0 km
Apogee: 925.9 km
Inclination: 82.9 °
Period: 102.6 minutes
Semi major axis: 7261 km
RCS: Unknown
Launch date: June 4, 1981
Source: Commonwealth of Independent States (former USSR) (CIS)
Launch site: PLESETSK MISSILE AND SPACE COMPLEX (PKMTR)

Note: This is SATELLITE DEBRIS
aabbcc
Your satellite tracking list
Your tracking list is empty




NASA's NSSDC Master Catalog

Two Line Element Set (TLE):
1 42121U 81053QH  20018.06487397  .00000302  00000-0  18203-3 0  9994
2 42121  82.9297 278.5176 0048819  58.0321 302.5582 14.03024826755152
Source of the keplerian elements: AFSPC